Regional Weather Roundup
Issued by NWS Cleveland, OH

Home | Current Version | Previous Version | Text Only | Print | Product List | Glossary Off
Versions: 1 2 3 4 5 6 7 8 9 10 11 12 13 14 15 16 17 18 19 20 21 22 23 24 25 26 27 28 29 30 31 32 33 34 35 36 37 38 39 40 41 42 43 44 45 46 47 48 49 50

000
ASUS41 KCLE 221100
RWRCLE
OHIO REGIONAL WEATHER ROUNDUP
NATIONAL WEATHER SERVICE WILMINGTON, OH
700 AM EDT MON SEP 22 2014

NOTE: "FAIR" INDICATES FEW OR NO CLOUDS BELOW 12,000 FEET WITH NO
SIGNIFICANT WEATHER AND/OR OBSTRUCTIONS TO VISIBILITY.

OHZ001>008-015>018-024>027-034-035-043-044-221200-
   NORTHWEST OHIO

CITY           SKY/WX    TMP DP  RH WIND       PRES   REMARKS
DEFIANCE       CLOUDY   N/A N/A N/A N9        30.17R
FINDLAY        CLEAR     47  38  71 NW7       30.13R
TOLEDO EXPRESS CLOUDY    47  38  71 VRB7      30.15R
TOLEDO METCALF CLOUDY    49  36  61 N10G21    30.15R
LIMA           CLOUDY    48  38  68 N10       30.14R
$$

OHZ009>014-019>023-028>033-038-089-221200-
   NORTHEAST OHIO

CITY           SKY/WX    TMP DP  RH WIND       PRES   REMARKS
CLE-HOPKINS    MOCLDY    52  41  66 NW9       30.09R
CLE-LAKEFRONT  CLOUDY    55  45  68 NW23      30.06R
CUY CO. ARPT   MOCLDY    54  45  71 N16       30.06
LORAIN-ELYRIA  CLOUDY    53  41  63 NW7       30.09R
ASHTABULA      CLOUDY    51  47  86 NW8       30.04R
AKRON-CANTON   CLOUDY    51  42  71 NW8       30.06R
WOOSTER        NOT AVBL
MANSFIELD      CLOUDY    47  43  86 NW9G16    30.10R
YOUNGSTOWN     CLOUDY    51  45  79 NW9       30.04R
$$

OHZ042-051>053-060>062-070>072-077>081-221200-
  SOUTHWEST OHIO

CITY           SKY/WX    TMP DP  RH WIND       PRES   REMARKS
CINC-COVINGTON PTCLDY    48  42  80 N7        30.15R
CINC-LUNKEN    CLEAR     48  41  76 NE3       30.17R
HAMILTON       CLEAR     45  41  86 NW6       30.17R
DAYTON         NOT AVBL
WRIGHT-PAT AFB NOT AVBL
DAYTON GENERAL CLOUDY    47  42  83 N8        30.14R
WILMINGTON     CLEAR     47  43  86 N6        30.12R
$$

OHZ036-037-039>041-045>050-054>059-063>069-073>076-082>088-221200-
  CENTRAL AND SOUTHEAST OHIO

CITY           SKY/WX    TMP DP  RH WIND       PRES   REMARKS
COLUMBUS       CLOUDY    53  44  71 N8        30.10R
OSU AIRPORT    CLOUDY    50  43  77 N12       30.12R
BOLTON FIELD   NOT AVBL
RICKENBACK AFB NOT AVBL
NEWARK         CLOUDY    52  46  80 N8        30.09R
MARION         CLOUDY    48  40  73 N9        30.13R
LANCASTER      CLOUDY    54  48  80 CALM      30.10R
ZANESVILLE     CLOUDY    51  48  89 N3        30.08R
NEW PHILLY     CLOUDY    51  47  86 NW6       30.08R
$$


USA.gov is the U.S. government's official web portal to all federal, state and local government web resources and services.